Location: Unspecified
(17.6330°N, 0.0000°E)
Time: 19:55:02
(UTC+00:00)

A-11 Canister half - Pass Details

Date: 21 June 2019
Orbit: 1514 x 1686 km, 47.2° (Epoch: 21 August)

Event Time Altitude Azimuth Distance (km) Brightness Sun altitude
Rises 09:38:22 0° 237° (WSW) 4,931 11.3 56.0°
Reaches altitude 10° 09:41:39 10° 241° (WSW) 3,937 10.9 56.8°
Maximum altitude 09:51:28 54° 316° (NW) 1,944 10.2 59.0°
Drops below altitude 10° 10:01:03 10° 33° (NNE) 3,841 11.6 61.2°
Sets 10:04:15 0° 38° (NE) 4,804 11.9 61.9°
